Location: �A�n Sefra
(34.9681°N, 0.4346°E)
Time: 00:32:20
(UTC+00:00)

Lacrosse 5 - Pass Details

Date: 21 October 2019
Orbit: 715 x 724 km, 57.0° (Epoch: 27 October)

Event Time Altitude Azimuth Distance (km) Brightness Sun altitude
Rises 20:01:39 0° 313° (NW) 3,118 5.9 -34.4°
Reaches altitude 10° 20:04:08 10° 306° (NW) 2,195 5.0 -34.9°
Enters shadow 20:06:45 27° 287° (WNW) 1,340 3.7 -35.5°
